Location: Moy Burn
(57.3833°N, 4.0667°W)
Time: 10:08:55
(UTC+00:00)

CENTAUR R/B - Pass Details

Date: 08 August 2020
Orbit: 754 x 1434 km, 63.5° (Epoch: 17 September)

Event Time Altitude Azimuth Distance (km) Brightness Sun altitude
Exits shadow 22:51:54 11° 199° (SSW) 2,581 4.3 -14.5°
Maximum altitude 22:57:40 49° 127° (SE) 1,315 2.8 -14.8°
Drops below altitude 10° 23:04:39 10° 56° (NE) 3,108 5.3 -15.1°
Sets 23:07:42 0° 51° (NE) 4,177 6.1 -15.2°
